User: anonymous
Location: Hopkins Observatory
(42.6965°N, 73.1843°W)
Time: 07:19:13
(UTC-04:00)
Language:

RS-15 - Orbit

View from above orbital plane
View from above orbital plane
View from above satellite
View from above satellite

Ground track
Ground track

The orbit data is extracted from the following two-line orbital elements,

1 23439U 94085A   14290.17960543 -.00000034  00000-0  23488-3 0  7295
2 23439 064.8198 354.4486 0147049 058.6805 330.7043 11.27560839815758
Epoch (UTC): 17 October 2014 04:18:37
Eccentricity: 0.0147049
inclination: 64.8198°
perigee height: 1899 km
apogee height: 2146 km
right ascension of ascending node: 354.4486°
argument of perigee: 58.6805°
revolutions per day: 11.27560839
mean anomaly at epoch: 330.7043°
orbit number at epoch: 81575

The dashed part of the orbit path shows where the satellite is in the earth's shadow,  

DLR